星链-36561(STARLINK-36561)

导读

STARLINK-36561是美国太空探索技术公司SpaceX星链星座的一员,于2026年1月22日发射入轨。星链项目旨在构建全球卫星互联网星座,为全球偏远地区、海洋空域等网络盲区提供高速低延迟的宽带网络服务,该卫星进一步扩充了星链星座的在轨卫星规模,完善星座网络覆盖能力。

Basic Information
目录编号:
67537
目录名称:
STARLINK-36561
国际标识:
2026-014F
轨道中心:
EARTH
卫星名称:
星链-36561
卫星全名:
星链-36561(STARLINK-36561)
卫星状态:
在轨 (已飞行226 天)
发射日期:
2026-01-22 UTC
国别 :
美国 (US)
星等 :
--
Orbit Information
数据来源 国际轨道数据
星历时间: 2026-09-05T12:57:30+0800
8小时前
查看轨道信息
半长轴: 6843.709km
偏心率: 0.0001822
轨道倾角: 97.285°
近地点辐角 87.417°
升交点赤经 133.774°
平近点角 272.728°
近地点: 464.325km
远地点: 466.819km
周期: 93.907分钟
每日圈数: 15.334356
Detailed Information
固有亮度:
5
最大亮度:
2.5
卫星平台:
Starlink V1.0
覆盖范围:
全球
运营商:
太空探索技术公司
运营商所在国:
美国
制造商(研发单位):
太空探索技术公司
制造商所在国:
美国
使用方式:
暂无
Satellite Introduction
Starlink 计划是 SpaceX 推出的全球卫星互联网项目,通过发射低轨道卫星,为全球尤其是偏远地区提供高速、低延迟的互联网服务。自 2019 年起,Starlink 已部署数千颗卫星,旨在缩小全球数字鸿沟,推动互联网普及。该项目还为军事、航空等行业提供通信支持,带来广泛经济效益。
2D Orbit Map
3D Orbit Map
Orbit Altitude Analysis Chart
Orbit Inclination Analysis Chart
Orbit Comprehensive Analysis Chart
View Comprehensive Chart
Conjunction Data List
Event ID Objects TCA Miss Dist (km) Collision Risk Probability Collision Risk Index (CRI) Action
CDM_260907-011805-505106-753723
2026-09-07T
01:18:16+0000
2.707 km
极远距离
1.523816E-6 低风险 0.39
CDM_260906-230405-378906-753721
2026-09-06T
23:04:33+0000
2.220 km
极远距离
1.473878E-6 低风险 0.38
CDM_260906-095504-828906-753721
2026-09-06T
09:55:38+0000
3.000 km
极远距离
1.33758E-6 低风险 0.38
CDM_260907-165205-304906-753721
2026-09-07T
16:52:57+0000
2.707 km
极远距离
1.135692E-6 低风险 0.36
CDM_260907-220206-475606-753721
2026-09-07T
22:02:57+0000
2.758 km
极远距离
9.161109E-7 极低风险 0.34